Location: ????????
(55.0694°N, 38.0857°E)
Time: 13:47:13
(UTC+00:00)

Daily predictions for brighter satellites

Satellite Brightness Start Highest point End
(mag) Time Altitude Azimuth Time Altitude Azimuth Time Altitude Azimuth
Cosmos 2297 3.8 13:31:13 10° SSW 13:36:54 80° ESE 13:42:34 10° NE
Cosmos 1892 Rocket 3.6 13:35:25 10° N 13:39:53 70° ENE 13:44:19 10° SSE
Cosmos 1464 Rocket 4.0 13:33:51 10° S 13:40:01 80° E 13:46:10 10° NNE
SMAP 3.8 13:36:12 10° ESE 13:40:20 32° ENE 13:44:29 10° N
Thor Agena Rocket 3.9 13:36:19 10° SE 13:41:13 44° ENE 13:46:07 10° N
Cosmos 2297 Rocket 2.6 13:38:32 10° NNW 13:43:56 42° NE 13:49:19 10° ESE
Cosmos 2151 4.2 13:44:16 10° NNE 13:47:20 20° ENE 13:50:23 10° ESE
Cosmos 1741 Rocket 4.1 13:43:33 10° SSW 13:48:51 86° ESE 13:54:13 10° NNE
Aureole 3 Rocket 4.2 13:45:29 10° SSW 13:49:52 56° WNW 13:56:01 10° N
Cosmos 1092 Rocket 4.0 13:45:03 10° N 13:51:15 70° ENE 13:57:22 10° SSE
CZ-2D R/B 4.1 13:49:34 10° ESE 13:51:52 19° ENE 13:54:10 10° NNE
BlueWalker 3 2.8 13:51:02 10° W 13:54:32 47° SSW 13:58:02 10° ESE
Meteor 2-1 Rocket 4.4 13:50:29 10° S 13:56:24 79° E 14:02:17 10° NNE
Cosmos 1743 3.6 13:56:13 10° NNE 13:58:46 21° ENE 14:01:18 10° ESE
Lacrosse 4 Rocket 1.8 13:55:34 10° SSW 13:59:26 44° ESE 14:03:13 10° NE
ATLAS CENTAUR R/B 0.8 13:57:15 10° NW 14:00:31 56° NE 14:03:41 10° ESE
CZ-4C R/B 2.8 13:55:48 10° NW 14:01:57 62° NNE 14:09:52 10° ESE
Cosmos 1484 Rocket 2.4 14:00:10 10° SSE 14:03:42 80° ENE 14:07:13 10° NNW
Iridium 45 4.2 14:02:28 10° S 14:05:36 69° E 14:08:48 10° N
Cosmos 724 4.4 14:01:07 10° NW 14:07:13 65° NE 14:13:08 10° ESE
Cosmos 2034 Rocket 4.1 14:01:26 10° S 14:07:45 85° E 14:14:11 10° NNE
JB-3 4.1 14:04:11 10° NNE 14:07:54 79° ESE 14:11:33 10° S
Meteor 1-28 Rocket 3.5 14:06:31 10° NNE 14:09:40 37° E 14:12:48 10° SSE
NOSS 3-3 (A) 4.5 14:05:12 10° NW 14:12:09 81° NE 14:20:35 10° SE
Iridium 51 4.0 14:09:30 10° SSE 14:12:29 43° E 14:15:33 10° NNE
Cosmos 1602 Rocket 4.2 14:10:49 10° N 14:14:53 34° ENE 14:18:53 10° SE
MOS 1 Rocket 3.9 14:10:26 10° SE 14:14:55 37° ENE 14:19:40 10° N
Cosmos 1570 Rocket 4.0 14:09:39 10° NNW 14:15:03 81° ENE 14:20:23 10° SSE
Cosmos 1867 3.8 14:09:52 10° NW 14:15:14 51° NNE 14:20:33 10° ESE
IGS 5A 3.3 14:12:41 10° SSE 14:16:39 84° ENE 14:20:40 10° NNW
Cosmos 1455 Rocket 3.0 14:12:56 10° S 14:17:16 88° E 14:21:40 10° NNE
Lacrosse 5 rocket 1.9 14:15:06 10° SSW 14:18:35 37° SE 14:21:16 15° E
Cosmos 1844 Rocket 4.3 14:15:00 10° NNW 14:18:41 17° NNE 14:21:38 12° NE
Cosmos 2084 3.5 14:14:58 10° SW 14:19:07 60° SE 14:22:25 15° ENE
CENTAUR R/B 2.7 14:14:20 10° SSW 14:20:04 67° SE 14:26:39 13° NE
IRS-P3 4.4 14:15:41 10° SE 14:20:42 44° ENE 14:25:44 10° N
Cosmos 2084 Rocket 3.5 14:17:04 10° NW 14:21:14 57° NNE 14:25:23 10° ESE
SAR-Lupe-4 3.8 14:18:17 10° SE 14:21:41 44° ENE 14:25:05 10° N
Cosmos 836 Rocket 4.5 14:18:21 10° NNW 14:23:38 85° ENE 14:28:53 10° SSE
Cosmos 2266 Rocket 4.2 14:19:36 10° N 14:25:35 45° ENE 14:31:24 10° SE
Cosmos 2263 Rocket 3.0 14:20:44 10° NNW 14:25:44 31° NE 14:30:18 12° E
Cosmos 292 Rocket 3.8 14:21:33 10° SSW 14:26:21 83° WNW 14:31:12 10° NNE
Cosmos 1315 Rocket 2.6 14:22:55 10° S 14:26:45 70° E 14:30:34 10° NNE
Resurs 01 Rocket 3.5 14:28:01 12° NE 14:28:01 12° NE 14:29:08 10° NNE
SL-16 R/B 2.5 14:21:10 10° NNE 14:27:26 75° ESE 14:33:39 10° SSW
Cosmos 1607 3.9 14:22:11 10° NW 14:28:25 79° NE 14:34:43 10° SE
SJ 16-02 3.6 14:26:05 10° W 14:28:47 16° NW 14:31:31 10° N
SAR-Lupe-1 4.3 14:25:23 10° SE 14:28:51 46° ENE 14:32:21 10° N
NOSS 7 (H) 4.4 14:26:19 10° NW 14:29:11 42° NNE 14:31:04 18° E
CZ-2D R/B 4.4 14:25:49 10° ESE 14:29:18 26° ENE 14:32:45 10° N
YAOGAN 1 3.6 14:29:21 10° ESE 14:32:47 24° ENE 14:36:14 10° N
Intercosmos 24 3.8 14:29:16 10° NNW 14:33:42 86° ENE 14:37:17 10° SSE
Cosmos 2227 Rocket 2.5 14:29:28 10° NNW 14:34:54 45° NE 14:40:19 10° ESE
Cosmos 1782 3.0 14:31:58 10° SSE 14:35:20 38° E 14:37:56 15° NNE
USA 215 3.3 14:29:44 13° E 14:35:41 76° N 14:42:15 10° W
CORIOLIS 4.2 14:32:09 10° SSE 14:37:30 89° WSW 14:42:53 10° NNW
USA 281 4.5 14:38:01 16° NE 14:40:55 21° NNE 14:45:37 10° NNW
Cosmos 1356 Rocket 3.3 14:36:53 10° SSW 14:40:56 89° W 14:45:03 10° NNE
Cosmos 405 Rocket 2.6 14:37:40 10° NNW 14:40:56 69° WSW 14:44:09 10° S
Cosmos 773 Rocket 4.0 14:36:12 10° NNW 14:41:26 88° WSW 14:46:40 10° SSE
Cosmos 2369 Rocket 3.1 14:36:54 10° WSW 14:42:20 46° NW 14:47:43 10° NNE
Cosmos 1733 1.4 14:43:17 10° NNW 14:45:13 79° WSW 14:47:07 10° S
SJ-12 3.6 14:43:11 10° SSE 14:46:57 73° ENE 14:50:45 10° NNW
Cosmos 2208 Rocket 4.1 14:43:39 10° NNW 14:48:50 78° WSW 14:54:00 10° SSE
SJ-6F 4.3 14:44:58 10° SSE 14:48:53 59° ENE 14:52:51 10° N
Cosmos 1825 Rocket 4.0 14:45:13 10° N 14:49:18 37° ENE 14:53:21 10° SE
ARIANE 5 R/B 2.5 14:44:31 10° SSE 14:49:35 88° ENE 14:54:46 10° NNW
Cosmos 1933 4.5 14:47:09 10° SE 14:49:46 22° E 14:49:46 22° E
Cosmos 1758 Rocket 3.5 14:46:13 10° NNW 14:50:35 83° W 14:54:52 10° S
Cosmos 2278 Rocket 4.1 14:46:55 10° WNW 14:50:50 19° NNW 14:54:37 10° NNE
Cosmos 1943 Rocket 4.1 14:47:29 10° WNW 14:51:10 18° NNW 14:54:44 10° NNE
GEOS 3 Rocket 3.7 14:48:18 19° NE 14:52:13 70° SE 14:57:35 10° SW
SPOT 1/Viking Rocket 3.7 14:47:14 10° SE 14:52:16 51° ENE 14:57:19 10° N
Cosmos 2228 3.0 14:48:07 10° SSW 14:52:21 80° W 14:56:39 10° N
Cosmos 2098 Rocket 3.0 14:53:00 10° S 14:56:58 60° E 15:01:40 10° NNE
Cosmos 1697 Rocket 3.8 14:53:30 10° SSE 14:57:45 23° ESE 14:58:26 22° E
Meteor 1-20 Rocket 4.0 14:53:34 10° NNW 14:59:05 74° ENE 15:04:32 10° SSE
BREEZE-M DEB (TANK) 3.6 14:57:06 10° WSW 14:59:57 42° S 15:05:50 14° ESE
AQUARIUS 4.1 15:02:21 10° SSE 15:06:46 85° WSW 15:11:13 10° NNW
NOSS 2-2 (C) 2.5 15:06:40 10° SW 15:09:45 77° SE 15:10:15 58° ENE
IRS-1C 4.5 15:05:04 10° S 15:10:21 68° WSW 15:15:42 10° NNW
USA 290 2.8 15:10:28 10° NW 15:13:42 58° WSW 15:16:54 10° SSE
NOSS 3-2 (C) 3.9 15:09:08 10° S 15:13:43 33° ESE 15:15:10 29° E
NOSS 3-2 (A) 3.2 15:10:02 10° SW 15:15:09 67° SE 15:18:17 29° ENE
Cosmos 1655 Rocket 4.0 15:09:52 10° N 15:16:03 56° ENE 15:22:09 10° SSE
Cosmos 783 Rocket 4.5 15:11:47 10° NNW 15:17:08 89° ENE 15:22:27 10° SSE
SMAP 4.2 15:13:07 10° S 15:17:35 45° W 15:22:05 10° NNW
Cosmos 2082 4.3 15:14:07 10° NNW 15:19:25 37° NE 15:20:46 33° ENE
Cosmos 1241 Rocket 4.5 15:13:21 10° SSW 15:19:39 67° SE 15:22:58 29° NE
Cosmos 1538 Rocket 4.2 15:17:50 10° NNW 15:22:56 49° NE 15:25:01 32° ESE
CZ-2D R/B 4.2 15:20:37 10° S 15:23:35 39° W 15:26:36 10° NNW
Cosmos 2151 3.3 15:20:27 10° NNW 15:24:34 63° W 15:28:40 10° S
Cosmos 1606 Rocket 3.7 15:22:53 10° S 15:27:08 50° E 15:27:45 46° ENE
Cosmos 2297 Rocket 3.0 15:22:39 10° NW 15:28:09 53° WSW 15:33:37 10° S
UNK 4.1 15:24:01 10° N 15:28:35 63° WNW 15:33:05 10° SSW
Meteor 1-25 Rocket 4.3 15:23:02 10° NNW 15:28:55 87° W 15:34:44 10° S
BREEZE-M DEB (TANK) 4.2 15:25:50 10° WSW 15:29:07 48° S 15:33:46 23° ESE
Cosmos 1076 Rocket 3.5 15:26:10 10° N 15:30:25 57° ENE 15:32:38 26° SE
Okean 1-7 Rocket 3.7 15:26:58 10° NNW 15:31:23 75° W 15:35:45 10° S
BlueWalker 3 4.5 15:29:01 10° W 15:31:30 17° SW 15:33:58 10° S
Cosmos 1743 4.0 15:29:27 10° NNW 15:32:27 34° W 15:35:26 10° SSW
Cosmos 1656 3.6 15:28:28 10° SSW 15:34:07 86° ESE 15:37:03 30° NE
Resurs 1-3 3.4 15:30:05 10° SSE 15:34:21 73° ENE 15:38:40 10° NNW
ATLAS CENTAUR R/B 3.3 15:32:32 10° WNW 15:35:06 21° WSW 15:37:36 10° S
Cosmos 1544 Rocket 4.3 15:31:50 10° SSW 15:36:09 54° WNW 15:40:20 11° N
Cosmos 1503 Rocket 4.0 15:31:23 10° S 15:36:32 59° ESE 15:37:54 44° ENE
Meteor 2-10 4.1 15:32:08 10° N 15:37:17 53° ENE 15:39:46 30° SE
Lacrosse 4 Rocket 2.5 15:33:36 10° WSW 15:37:23 36° NW 15:38:43 28° N
OceanSat 1 rocket 4.5 15:34:13 10° SSE 15:38:56 69° ENE 15:43:39 10° NNW
Cosmos 2219 3.3 15:36:24 10° NNW 15:42:02 54° NE 15:43:14 46° E
Cosmos 1461 4.1 15:39:05 10° S 15:41:17 26° SSE 15:41:17 26° SSE
SJ-7 4.0 15:42:23 57° SSE 15:43:07 89° ENE 15:46:54 10° NNW
Cosmos 1354 Rocket 4.1 15:38:18 10° S 15:43:23 50° ESE 15:43:36 49° E
Meteor 1-5 Rocket 4.0 15:38:48 10° NNW 15:44:09 85° ENE 15:49:34 10° SSE
SKYMED 2 3.4 15:45:54 67° ENE 15:46:14 71° ESE 15:50:34 10° S
Spot 4 Rocket 4.0 15:41:47 10° SSE 15:46:54 84° WSW 15:52:03 10° NNW
CZ-4C R/B 3.4 15:43:55 10° NW 15:50:31 59° SW 15:58:45 10° SSE
COSMO-SKYMED 1 3.9 15:52:52 26° S 15:52:52 26° S 15:54:47 10° S
SL-19 R/B 4.2 15:47:36 10° SSE 15:52:58 86° WSW 15:58:40 10° NNW
Cosmos 1726 Rocket 3.7 15:49:14 10° S 15:53:23 63° SE 15:53:23 63° SE
PSLV R/B 3.4 15:52:38 33° S 15:54:25 81° WSW 15:58:29 10° NNW
Lacrosse 5 rocket 1.5 15:51:43 10° WSW 15:54:52 60° W 15:54:52 60° W
Cosmos 44 Rocket 4.3 15:52:05 10° NW 15:56:25 35° NNE 15:56:25 35° NNE
Cosmos 2084 4.2 15:53:58 10° W 15:57:57 41° NNW 15:58:08 41° NNW
Cosmos 1777 Rocket 3.9 15:53:26 10° SSW 15:58:42 87° WNW 16:00:11 49° NNE
Cosmos 1867 4.3 15:53:36 10° NW 15:58:54 52° SW 16:03:16 15° SSE
Cosmos 1980 Rocket 3.9 15:54:17 10° SSE 15:55:56 18° SSE 15:55:56 18° SSE
Resurs 01 Rocket 3.3 16:05:25 22° N 16:05:25 22° N 16:07:02 10° N
CZ-2D R/B 4.3 15:59:55 10° S 16:04:01 50° W 16:08:05 10° NNW
Cosmos 1844 Rocket 3.7 15:59:09 10° NNW 16:03:16 32° NNE 16:03:16 32° NNE
YAOGAN 1 3.1 16:04:11 10° S 16:08:22 55° W 16:12:35 10° NNW
Cosmos 2263 Rocket 2.1 16:04:34 10° NW 16:10:17 84° WSW 16:12:02 46° SSE
SL-16 R/B 4.1 16:05:13 10° N 16:10:33 31° NW 16:15:51 10° WSW
CENTAUR R/B 3.2 16:04:49 10° W 16:11:01 55° NNW 16:13:45 37° NE
Cosmos 1486 Rocket 4.4 16:08:04 10° SW 16:13:13 59° WNW 16:14:56 39° N
Cosmos 1953 Rocket 3.9 16:10:25 10° NNW 16:14:49 64° W 16:16:13 40° SSW
Nadezhda 2 Rocket 4.3 16:09:53 10° N 16:16:05 73° ENE 16:17:08 60° SE
Cosmos 2360 4.4 16:11:39 10° SW 16:17:22 69° NW 16:18:52 49° NNE
USA 81 4.0 16:12:29 10° N 16:17:47 80° W 16:23:03 10° S
USA 215 3.2 16:17:05 54° ESE 16:18:44 83° SSW 16:25:21 10° WNW
Cosmos 2227 Rocket 3.0 16:13:38 10° NW 16:19:03 49° WSW 16:24:27 10° S
USA 281 3.6 16:24:53 46° NNE 16:24:53 46° NNE 16:30:27 10° NNW
Cosmos 2369 Rocket 4.1 16:23:43 10° WNW 16:27:48 20° NNW 16:29:28 18° N
GEOS 3 Rocket 4.3 16:29:20 44° N 16:30:04 47° NNW 16:35:11 10° W
Cosmos 1943 Rocket 4.2 16:33:42 10° NNW 16:36:13 16° N 16:36:13 16° N
Cosmos 2278 Rocket 4.2 16:33:34 10° NNW 16:36:26 17° N 16:36:26 17° N
Cosmos 1697 Rocket 2.9 16:35:27 10° SW 16:40:11 64° SW 16:40:11 64° SW
Cosmos 2082 4.4 16:58:14 10° NW 17:02:38 51° WNW 17:02:38 51° WNW
NOSS 3-2 (C) 3.9 16:58:40 10° WSW 17:02:36 51° WSW 17:02:36 51° WSW
NOSS 3-2 (A) 4.1 17:00:49 10° W 17:05:38 49° NW 17:05:38 49° NW
Lacrosse 4 Rocket 4.4 17:13:50 10° NW 17:14:13 11° NW 17:14:13 11° NW
Cosmos 2263 Rocket 4.4 17:49:32 10° WNW 17:53:24 19° W 17:53:46 19° WSW
CENTAUR R/B 4.0 17:56:19 10° WNW 18:00:51 37° NW 18:00:51 37° NW
